Weather History for Rome, GA

Change the Weather History Date:

Tuesday, May 21, 2013

  Actual Average Record
Temperature  
Mean Temperature 76 °F 70 °F  
Max Temperature 89 °F 82 °F 93 °F (2004)
Min Temperature 62 °F 57 °F 44 °F (2002)
Cooling Degree Days 11 5  
Month to date cooling degree days 50 68  
Year to date cooling degree days 74 101  
Growing Degree Days 26 (Base 50)    
Moisture  
Dew Point 66 °F    
Average Humidity 76    
Maximum Humidity 100    
Minimum Humidity 51    
Precipitation  
Precipitation T in 0.12 in 1.36 in (2003)
Month to date precipitation 7.08 2.98  
Year to date precipitation 14.80 21.67  
Sea Level Pressure  
Sea Level Pressure 29.98 in    
Wind  
Wind Speed 2 mph (SW)    
Max Wind Speed 10 mph    
Max Gust Speed 13 mph    
Visibility 6 miles    
Events Fog    
T = Trace of Precipitation, MM = Missing Value Source: NWS Daily Summary

Daily Weather History Graph

Daily Weather History Graph

Search for Another Location

Airport:

Trip Planner

Search our weather history database for the weather conditions in past years. The results will help you decide how hot, cold, wet, or windy it might be!

Date:

Astronomy

May. 21, 2013 Rise Set
Actual Time 6:34 AM EDT 8:40 PM EDT
Civil Twilight 6:06 AM EDT 9:08 PM EDT
Nautical Twilight 5:31 AM EDT 9:43 PM EDT
Astronomical Twilight 4:54 AM EDT 10:20 PM EDT
Moon 5:01 PM EDT (5/21) 3:51 AM EDT (5/21)
Length of Visible Light 15h 02m
Length of Day
14h 06m
Waxing Gibbous, 84% of the Moon is Illuminated
May 21
Waxing Gibbous
May 25
Full
May 31
Last Quarter
Jun 8
New
Jun 16
First Quarter

Hourly Weather History & Observations

Time (EDT) Temp. Heat Index Dew Point Humidity Pressure Visibility Wind Dir Wind Speed Gust Speed Precip Events Conditions
12:53 AM 66.9 °F - 66.0 °F 97% 30.00 in 6.0 mi Calm Calm - N/A   Clear
1:53 AM 64.9 °F - 64.9 °F 100% 29.99 in 6.0 mi Calm Calm - N/A   Clear
2:37 AM 66.2 °F - 64.4 °F 94% 30.01 in 6.0 mi Calm Calm - N/A   Mostly Cloudy
2:51 AM 64.4 °F - 64.4 °F 100% 30.01 in 1.8 mi Calm Calm - N/A   Overcast
2:53 AM 64.9 °F - 64.9 °F 100% 29.98 in 1.2 mi Calm Calm - N/A   Overcast
2:57 AM 64.4 °F - 64.4 °F 100% 30.01 in 0.8 mi NW 3.5 mph - N/A   Mist
3:17 AM 64.4 °F - 64.4 °F 100% 30.00 in 1.0 mi Calm Calm - N/A   Mist
3:25 AM 64.4 °F - 64.4 °F 100% 30.00 in 3.0 mi Calm Calm - N/A   Mostly Cloudy
3:33 AM 64.4 °F - 64.4 °F 100% 30.00 in 5.0 mi Calm Calm - N/A   Scattered Clouds
3:53 AM 64.0 °F - 64.0 °F 100% 29.98 in 7.0 mi Calm Calm - N/A   Clear
4:42 AM 64.4 °F - 64.4 °F 100% 30.00 in 5.0 mi Calm Calm - N/A   Scattered Clouds
4:53 AM 64.0 °F - 64.0 °F 100% 29.98 in 5.0 mi Calm Calm - N/A   Mostly Cloudy
5:08 AM 64.4 °F - 64.4 °F 100% 30.00 in 1.8 mi Calm Calm - N/A   Overcast
5:15 AM 64.4 °F - 64.4 °F 100% 30.00 in 0.8 mi Calm Calm - N/A   Mist
5:36 AM 62.6 °F - 62.6 °F 100% 30.00 in 0.5 mi Calm Calm - N/A Fog Fog
5:46 AM 62.6 °F - 62.6 °F 100% 30.00 in 1.5 mi Calm Calm - N/A   Mostly Cloudy
5:53 AM 63.0 °F - 63.0 °F 100% 29.98 in 1.8 mi Calm Calm - N/A   Mostly Cloudy
6:03 AM 62.6 °F - 62.6 °F 100% 30.01 in 0.8 mi Calm Calm - N/A   Mist
6:09 AM 62.6 °F - 62.6 °F 100% 30.01 in 2.0 mi Calm Calm - N/A   Mostly Cloudy
6:17 AM 62.6 °F - 62.6 °F 100% 30.01 in 4.0 mi Calm Calm - N/A   Mostly Cloudy
6:53 AM 62.1 °F - 62.1 °F 100% 30.00 in 3.0 mi Calm Calm - N/A   Mostly Cloudy
7:12 AM 62.6 °F - 62.6 °F 100% 30.04 in 2.0 mi Calm Calm - N/A   Mostly Cloudy
7:22 AM 62.6 °F - 62.6 °F 100% 30.04 in 4.0 mi Calm Calm - N/A   Mostly Cloudy
7:31 AM 62.6 °F - 62.6 °F 100% 30.04 in 1.8 mi Calm Calm - N/A   Mostly Cloudy
7:47 AM 64.4 °F - 62.6 °F 94% 30.05 in 3.0 mi Calm Calm - N/A   Mostly Cloudy
7:53 AM 64.0 °F - 63.0 °F 96% 30.03 in 5.0 mi Calm Calm - N/A   Overcast
8:12 AM 66.2 °F - 64.4 °F 94% 30.05 in 7.0 mi Calm Calm - N/A   Scattered Clouds
8:53 AM 70.0 °F - 66.9 °F 90% 30.03 in 9.0 mi Calm Calm - N/A   Partly Cloudy
9:53 AM 75.0 °F - 69.1 °F 82% 30.02 in 10.0 mi ESE 3.5 mph - N/A   Clear
10:53 AM 80.1 °F 83.6 °F 71.1 °F 74% 30.01 in 10.0 mi Calm Calm - N/A   Clear
11:53 AM 82.9 °F 87.5 °F 71.1 °F 67% 30.00 in 10.0 mi SSE 6.9 mph - N/A   Partly Cloudy
12:53 PM 84.9 °F 88.8 °F 69.1 °F 59% 29.99 in 10.0 mi SSW 4.6 mph - N/A   Clear
1:53 PM 84.0 °F 86.5 °F 66.9 °F 56% 29.97 in 10.0 mi Variable 3.5 mph - N/A   Mostly Cloudy
2:53 PM 86.0 °F 89.4 °F 68.0 °F 55% 29.95 in 10.0 mi Calm Calm - N/A   Scattered Clouds
3:53 PM 88.0 °F 91.4 °F 68.0 °F 51% 29.92 in 10.0 mi Variable 5.8 mph - N/A   Partly Cloudy
4:53 PM 88.0 °F 91.4 °F 68.0 °F 51% 29.90 in 10.0 mi Variable 3.5 mph - N/A   Partly Cloudy
5:53 PM 86.0 °F 88.8 °F 66.9 °F 53% 29.88 in 10.0 mi WSW 4.6 mph - N/A   Clear
6:53 PM 84.9 °F 88.8 °F 69.1 °F 59% 29.87 in 10.0 mi Calm Calm - 0.00 in   Clear
7:53 PM 82.0 °F 84.9 °F 68.0 °F 62% 29.86 in 10.0 mi Calm Calm - N/A   Clear
8:53 PM 75.9 °F - 71.1 °F 85% 29.88 in 10.0 mi Calm Calm - N/A   Clear
9:53 PM 73.0 °F - 72.0 °F 96% 29.91 in 9.0 mi Calm Calm - N/A   Partly Cloudy
10:53 PM 72.0 °F - 70.0 °F 93% 29.93 in 9.0 mi West 4.6 mph - N/A   Partly Cloudy
11:53 PM 72.0 °F - 71.1 °F 97% 29.93 in 8.0 mi Calm Calm - N/A   Partly Cloudy